Location: Barruelo
(41.2448°N, 3.8231°W)
Time: 00:02:40
(UTC+00:00)

Okean 1 - Pass Details

Date: 11 December 2025
Orbit: 465 x 484 km, 82.5° (Epoch: 14 January)

Event Time Altitude Azimuth Distance (km) Brightness Sun altitude
Rises 16:59:49 0° 104° (ESE) 2,530 6.3 -3.0°
Enters shadow 17:01:34 - 85° (E) 2,343 5.9 -3.3°
Exits shadow 17:24:53 -42° 357° (N) 9,262 9.4 -7.3°
Reaches altitude 10° 18:32:30 10° 176° (S) 1,648 5.9 -19.3°
